[[{"header":{"parameterUnit":"m.s-1","parameterCategory":2,"la1":30.2991,"la2":30.254,"lo1":-89.0895,"lo2":-89.0444,"dy":0.0017,"dx":0.0017,"nx":28,"ny":28,"refTime":"2023-10-12T03:00:00:Z","depth":"0","parameterNumber":2,"parameterNumberName":"U-component_of_CURRENTS"},"data":[0,0,0,0,0,0,0,0,0,0,0,0,0,0,0,0,0,0,0,0,0,0,0,0,0,0,0,0,0,0,0,0,0,0,0,0,0,0,0,0,0,0,0,0,0,0,0,0,0,0,0,0,0,0,0,0,0,0,-0.1844,-0.1845,0,-0.1854,-0.1854,-0.1854,-0.1873,-0.1873,-0.1874,-0.1875,-0.1886,-0.1886,-0.1886,0,0,0,0,0,0,0,0,0,0,0,0,0,-0.1765,-0.1767,-0.1844,-0.1845,-0.1845,-0.1854,-0.1854,-0.1854,-0.1873,-0.1873,-0.1874,-0.1875,-0.1887,-0.1886,-0.1886,0,0,0,0,0,0,0,0,0,0,0,0,0,-0.1787,-0.1767,-0.1844,-0.1858,-0.1859,-0.1854,-0.1854,-0.1854,-0.1872,-0.1873,-0.1874,-0.1875,-0.1887,-0.1886,-0.1886,-0.1863,0,0,-0.1884,-0.1884,0,0,0,0,0,0,0,0,-0.1786,-0.1789,-0.1855,-0.1857,-0.1859,-0.1866,-0.1831,-0.1858,-0.1872,-0.1864,-0.1875,-0.1876,-0.1881,-0.1881,-0.1876,-0.1863,-0.1864,-0.1884,-0.1884,-0.1884,-0.1884,0,0,0,0,0,0,0,-0.1784,-0.1789,-0.1845,-0.1856,-0.1858,-0.1838,-0.1842,-0.1835,-0.1864,-0.1865,-0.1867,-0.1873,-0.1882,-0.1877,-0.1877,-0.1864,-0.1884,-0.1884,-0.1884,-0.1884,-0.1842,-0.1841,0,0,0,0,0,0,-0.1793,-0.1788,-0.1845,-0.1845,-0.1828,-0.1839,-0.1844,-0.186,-0.1864,-0.1867,-0.1872,-0.1874,-0.1877,-0.1877,-0.1877,-0.1875,-0.1884,-0.1883,-0.1883,-0.1843,-0.1842,-0.1841,0,0,0,0,0,0,-0.1791,-0.1798,-0.1844,-0.1818,-0.1824,-0.184,-0.1858,-0.186,-0.1862,-0.1871,-0.1873,-0.1874,-0.1878,-0.1878,-0.1867,-0.1875,-0.1883,-0.1883,-0.1844,-0.1843,-0.1841,-0.1856,0,0,0,0,0,0,-0.1789,-0.1798,-0.1804,-0.182,-0.1826,-0.1849,-0.1857,-0.1859,-0.1865,-0.1868,-0.1872,-0.1874,-0.1878,-0.1867,-0.1866,-0.1875,-0.1882,-0.1845,-0.1843,-0.1842,-0.1856,-0.1855,-0.1854,0,0,0,0,0,-0.1786,-0.1799,-0.1804,-0.1811,-0.1837,-0.185,-0.185,-0.1862,-0.1865,-0.1867,-0.186,-0.1874,-0.1857,-0.1866,-0.1865,-0.1874,-0.1846,-0.1844,-0.1842,-0.1857,-0.1855,-0.1854,0,0,0,0,0,0,-0.1771,-0.1802,-0.1809,-0.1831,-0.1842,-0.1855,-0.1856,-0.1861,-0.1856,-0.1856,-0.186,-0.1861,-0.1856,-0.1853,-0.1862,-0.1854,-0.1855,-0.1853,-0.1867,-0.1865,-0.1864,-0.1864,-0.1882,0,0,0,0,0,-0.1769,-0.1783,-0.1809,-0.1822,-0.183,-0.184,-0.1843,-0.1853,-0.1855,-0.1855,-0.1854,-0.1849,-0.1844,-0.1846,-0.1839,-0.1831,-0.1824,-0.1835,-0.1834,-0.1833,-0.1829,-0.182,-0.1818,-0.1835,-0.1835,-0.1835,0,0,-0.1763,-0.1783,-0.179,-0.1818,-0.1825,-0.1833,-0.1844,-0.1854,-0.1857,-0.1855,-0.1848,-0.1843,-0.1839,-0.1833,-0.1831,-0.1836,-0.1822,-0.1831,-0.183,-0.1827,-0.1818,-0.1817,-0.1815,-0.1834,-0.1834,-0.1834,0,0,-0.1752,-0.178,-0.1782,-0.1797,-0.1816,-0.1827,-0.1831,-0.1843,-0.1847,-0.184,-0.1838,-0.1834,-0.1825,-0.1826,-0.1825,-0.1809,-0.1814,-0.1809,-0.1811,-0.1802,-0.1801,-0.18,-0.1785,-0.1783,-0.1813,-0.1813,-0.1813,0,-0.174,-0.1751,-0.1782,-0.179,-0.1796,-0.1825,-0.1823,-0.1835,-0.1838,-0.1834,-0.184,-0.1819,-0.1823,-0.1816,-0.1815,-0.181,-0.18,-0.1822,-0.1802,-0.1801,-0.18,-0.1785,-0.1783,-0.1813,-0.1813,-0.1813,-0.1813,0,-0.1727,-0.1738,-0.1742,-0.1762,-0.1776,-0.1781,-0.181,-0.1814,-0.1821,-0.1829,-0.1821,-0.1818,-0.1806,-0.1812,-0.1812,-0.1805,-0.1799,-0.1802,-0.1812,-0.18,-0.1784,-0.1781,-0.1814,-0.1814,-0.1814,-0.1814,0,0,-0.1694,-0.1723,-0.1723,-0.1723,-0.176,-0.1768,-0.1782,-0.1793,-0.1795,-0.1805,-0.1792,-0.1799,-0.18,-0.1797,-0.1799,-0.1801,-0.179,-0.18,-0.1799,-0.1795,-0.1764,-0.1822,-0.1824,-0.1793,-0.1792,-0.1792,-0.1756,0,-0.1665,-0.1662,-0.1689,-0.1687,-0.1689,-0.1725,-0.1735,-0.1756,-0.1772,-0.1771,-0.1784,-0.1775,-0.1797,-0.1786,-0.1793,-0.1784,-0.1783,-0.1799,-0.1767,-0.1765,-0.1828,-0.1823,-0.1956,-0.1942,-0.1753,-0.1753,-0.1752,0,-0.1639,-0.164,-0.1627,-0.1646,-0.165,-0.1656,-0.1673,-0.1685,-0.1712,-0.1721,-0.1729,-0.1742,-0.1741,-0.1758,-0.1753,-0.1761,-0.1762,-0.1763,-0.1762,-0.181,-0.1818,-0.1922,-0.1943,-0.2015,-0.1748,-0.1748,-0.1748,0,-0.1592,-0.1598,-0.158,-0.1588,-0.1618,-0.1612,-0.1624,-0.1659,-0.1671,-0.168,-0.1689,-0.1696,-0.1692,-0.1697,-0.1724,-0.1727,-0.1721,-0.1721,-0.1773,-0.1776,-0.188,-0.1894,-0.1978,-0.1714,-0.1714,-0.1714,-0.1714,0,-0.1558,-0.1548,-0.1553,-0.1548,-0.1532,-0.1567,-0.1561,-0.158,-0.1606,-0.1626,-0.1652,-0.1671,-0.1679,-0.1693,-0.1705,-0.174,-0.1705,-0.1771,-0.1774,-0.1888,-0.1902,-0.1961,-0.2022,-0.1713,-0.1713,-0.1713,-0.1714,0,-0.1527,-0.1528,-0.151,-0.1513,-0.1512,-0.1501,-0.1524,-0.1529,-0.1559,-0.158,-0.158,-0.1634,-0.1666,-0.1688,-0.1695,-0.1723,-0.1781,-0.1759,-0.1892,-0.1913,-0.2033,-0.2091,-0.1997,-0.2006,-0.1799,-0.18,-0.1802,0,-0.1519,-0.15,-0.1478,-0.1464,-0.1463,-0.1455,-0.1458,-0.1492,-0.1511,-0.1575,-0.1585,-0.1628,-0.1707,-0.1749,-0.1819,-0.1858,-0.1836,-0.1951,-0.1988,-0.2064,-0.2129,-0.1984,-0.1988,-0.2122,-0.2125,-0.2128,-0.2131,0,-0.1497,-0.1477,-0.1458,-0.1423,-0.141,-0.1402,-0.1411,-0.1432,-0.1486,-0.1548,-0.1641,-0.1713,-0.1817,-0.1988,-0.2039,-0.2036,-0.2014,-0.2012,-0.2065,-0.2375,-0.2249,-0.2254,-0.2104,-0.2157,-0.2155,-0.2153,-0.2151,-0.215,-0.1476,-0.1446,-0.1408,-0.1383,-0.1365,-0.1358,-0.14,-0.1467,-0.1539,-0.1763,-0.1745,-0.2059,-0.2207,-0.2348,-0.2292,-0.2372,-0.2218,-0.2386,-0.2441,-0.2271,-0.2321,-0.2225,-0.2301,-0.2299,-0.2298,-0.2296,-0.2295,0,-0.1449,-0.1411,-0.1377,-0.1347,-0.1341,-0.1339,-0.1387,-0.1487,-0.1657,-0.199,-0.2182,-0.2668,-0.2788,-0.2861,-0.2931,-0.2863,-0.2687,-0.2787,-0.2663,-0.2641,-0.257,-0.2634,-0.282,-0.2819,-0.2819,-0.2819,-0.2819,-0.2819,-0.1429,-0.1377,-0.1357,-0.1334,-0.1336,-0.1386,-0.1445,-0.1625,-0.1904,-0.2493,-0.3032,-0.3404,-0.3513,-0.3578,-0.3433,-0.3257,-0.3111,-0.3016,-0.2921,-0.2993,-0.2959,-0.2926,-0.2997,-0.3256,-0.3256,-0.2925,-0.2924,-0.2924]},{"header":{"parameterUnit":"m.s-1","parameterCategory":2,"la1":30.2991,"la2":30.254,"lo1":-89.0895,"lo2":-89.0444,"dy":0.0017,"dx":0.0017,"nx":28,"ny":28,"refTime":"2023-10-12T03:00:00:Z","depth":"0","parameterNumber":3,"parameterNumberName":"V-component_of_CURRENTS"},"data":[0,0,0,0,0,0,0,0,0,0,0,0,0,0,0,0,0,0,0,0,0,0,0,0,0,0,0,0,0,0,0,0,0,0,0,0,0,0,0,0,0,0,0,0,0,0,0,0,0,0,0,0,0,0,0,0,0,0,-0.1036,-0.1035,0,-0.096,-0.0959,-0.0957,-0.0913,-0.0913,-0.0913,-0.0914,-0.0849,-0.0847,-0.0845,0,0,0,0,0,0,0,0,0,0,0,0,0,-0.1042,-0.1043,-0.1036,-0.1035,-0.1035,-0.096,-0.0958,-0.0957,-0.0913,-0.0913,-0.0914,-0.0914,-0.0849,-0.0847,-0.0845,0,0,0,0,0,0,0,0,0,0,0,0,0,-0.1008,-0.1043,-0.1036,-0.1006,-0.1002,-0.096,-0.0958,-0.0957,-0.0913,-0.0913,-0.0914,-0.0914,-0.085,-0.0847,-0.0845,-0.0825,0,0,-0.0836,-0.0835,0,0,0,0,0,0,0,0,-0.101,-0.1007,-0.1011,-0.1008,-0.1004,-0.0949,-0.0937,-0.0914,-0.0913,-0.0944,-0.0914,-0.0914,-0.0885,-0.0879,-0.086,-0.0822,-0.0819,-0.0836,-0.0834,-0.0833,-0.0832,0,0,0,0,0,0,0,-0.1012,-0.101,-0.1003,-0.101,-0.1006,-0.0961,-0.0957,-0.0932,-0.0913,-0.0941,-0.0939,-0.0935,-0.0883,-0.0863,-0.0859,-0.0818,-0.0836,-0.0834,-0.0832,-0.0831,-0.0786,-0.0787,0,0,0,0,0,0,-0.1033,-0.1013,-0.1005,-0.1001,-0.1011,-0.0962,-0.0957,-0.0964,-0.0913,-0.0906,-0.0935,-0.0933,-0.0868,-0.0862,-0.0856,-0.0823,-0.0833,-0.0831,-0.0829,-0.0786,-0.0786,-0.0787,0,0,0,0,0,0,-0.1033,-0.1033,-0.1008,-0.1006,-0.1,-0.0963,-0.097,-0.0962,-0.0947,-0.0908,-0.0901,-0.0928,-0.0868,-0.086,-0.083,-0.082,-0.0829,-0.0827,-0.0785,-0.0786,-0.0787,-0.0761,0,0,0,0,0,0,-0.1034,-0.1034,-0.104,-0.1008,-0.1001,-0.0986,-0.097,-0.0961,-0.0945,-0.0942,-0.09,-0.0893,-0.0867,-0.0834,-0.0827,-0.0817,-0.0825,-0.0785,-0.0786,-0.0786,-0.0761,-0.076,-0.076,0,0,0,0,0,-0.1035,-0.1044,-0.1041,-0.1039,-0.1013,-0.0986,-0.0978,-0.0948,-0.0945,-0.0935,-0.0905,-0.0895,-0.0835,-0.0831,-0.0823,-0.0812,-0.0784,-0.0785,-0.0786,-0.0761,-0.0761,-0.076,0,0,0,0,0,0,-0.1045,-0.104,-0.1035,-0.1042,-0.1018,-0.098,-0.0969,-0.0954,-0.0921,-0.0921,-0.0887,-0.0877,-0.085,-0.0843,-0.0839,-0.0807,-0.0814,-0.0813,-0.0798,-0.0797,-0.0796,-0.0796,-0.0823,0,0,0,0,0,-0.1053,-0.1061,-0.1042,-0.1044,-0.1038,-0.1006,-0.0991,-0.0974,-0.0944,-0.093,-0.0897,-0.0873,-0.0847,-0.0831,-0.0808,-0.0783,-0.0773,-0.0779,-0.0779,-0.0778,-0.0775,-0.0745,-0.074,-0.079,-0.079,-0.079,0,0,-0.1055,-0.1055,-0.1057,-0.1047,-0.1028,-0.1011,-0.0997,-0.098,-0.0957,-0.0929,-0.0888,-0.0866,-0.0842,-0.0809,-0.0799,-0.08,-0.0761,-0.0779,-0.0778,-0.0776,-0.0745,-0.074,-0.0736,-0.0791,-0.0791,-0.079,0,0,-0.1062,-0.1068,-0.1074,-0.1059,-0.1041,-0.1017,-0.1018,-0.0982,-0.0959,-0.0922,-0.0898,-0.0867,-0.083,-0.0798,-0.0782,-0.077,-0.076,-0.0778,-0.0766,-0.0737,-0.0732,-0.0727,-0.0713,-0.0707,-0.0777,-0.0777,-0.0777,0,-0.1064,-0.1074,-0.1067,-0.1064,-0.1051,-0.1025,-0.1016,-0.0984,-0.0938,-0.0917,-0.0912,-0.0844,-0.082,-0.0775,-0.0769,-0.0764,-0.0756,-0.0763,-0.0733,-0.0728,-0.0724,-0.071,-0.0704,-0.0776,-0.0776,-0.0776,-0.0776,0,-0.1072,-0.1075,-0.1076,-0.1066,-0.1048,-0.1037,-0.1002,-0.0977,-0.0951,-0.0916,-0.0869,-0.0826,-0.0788,-0.0778,-0.0764,-0.0726,-0.0733,-0.0733,-0.0727,-0.0717,-0.0704,-0.0698,-0.0774,-0.0774,-0.0775,-0.0775,0,0,-0.109,-0.1084,-0.1084,-0.108,-0.1052,-0.1038,-0.1004,-0.0962,-0.0941,-0.0888,-0.085,-0.0795,-0.0774,-0.0757,-0.0734,-0.0703,-0.0662,-0.0707,-0.0706,-0.0681,-0.0608,-0.0634,-0.0631,-0.0654,-0.0653,-0.0652,-0.0612,0,-0.1096,-0.1099,-0.1088,-0.1073,-0.107,-0.1037,-0.1007,-0.0966,-0.0925,-0.0879,-0.0826,-0.0784,-0.0765,-0.0748,-0.0711,-0.0672,-0.0645,-0.0673,-0.0633,-0.0632,-0.0646,-0.0624,-0.0698,-0.0671,-0.0607,-0.0606,-0.0605,0,-0.1111,-0.1109,-0.1106,-0.1086,-0.1081,-0.1064,-0.1021,-0.0988,-0.092,-0.089,-0.0834,-0.0793,-0.0727,-0.0724,-0.0641,-0.0662,-0.0636,-0.0609,-0.0607,-0.0636,-0.0647,-0.0672,-0.0662,-0.0654,-0.0596,-0.0597,-0.0597,0,-0.1137,-0.1123,-0.1123,-0.1116,-0.1085,-0.1075,-0.105,-0.0994,-0.0967,-0.0895,-0.0869,-0.0787,-0.0748,-0.0691,-0.0629,-0.0635,-0.0551,-0.0552,-0.0552,-0.0554,-0.0611,-0.0621,-0.0578,-0.0503,-0.0503,-0.0503,-0.0503,0,-0.1158,-0.1157,-0.1138,-0.1139,-0.1131,-0.11,-0.1079,-0.1044,-0.099,-0.0963,-0.0879,-0.0845,-0.0739,-0.0676,-0.0627,-0.0569,-0.0547,-0.0544,-0.054,-0.0607,-0.0616,-0.0608,-0.0606,-0.0502,-0.0502,-0.0502,-0.0502,0,-0.1193,-0.1183,-0.1181,-0.1155,-0.1148,-0.1143,-0.1108,-0.1094,-0.1037,-0.0999,-0.0977,-0.0877,-0.0801,-0.0705,-0.0613,-0.0574,-0.053,-0.0506,-0.0598,-0.0606,-0.0604,-0.0599,-0.0511,-0.0588,-0.0495,-0.0496,-0.0496,0,-0.1215,-0.1218,-0.1201,-0.1202,-0.1195,-0.118,-0.1174,-0.1125,-0.1114,-0.1029,-0.1021,-0.0925,-0.0888,-0.075,-0.0659,-0.0574,-0.0557,-0.0582,-0.0601,-0.0607,-0.0597,-0.0546,-0.0616,-0.0669,-0.067,-0.0672,-0.0673,0,-0.1242,-0.1235,-0.1231,-0.124,-0.1242,-0.1242,-0.1232,-0.1237,-0.1184,-0.1174,-0.1146,-0.1108,-0.0955,-0.0908,-0.0771,-0.0698,-0.062,-0.0608,-0.0586,-0.0704,-0.0674,-0.0748,-0.0697,-0.0685,-0.0684,-0.0683,-0.0682,-0.0682,-0.1254,-0.1261,-0.1259,-0.1273,-0.128,-0.1313,-0.1368,-0.1372,-0.1398,-0.1454,-0.1322,-0.1351,-0.1172,-0.1,-0.0886,-0.0735,-0.0713,-0.0723,-0.0708,-0.0647,-0.0743,-0.0725,-0.0726,-0.0725,-0.0724,-0.0723,-0.0723,0,-0.1261,-0.1273,-0.129,-0.132,-0.1371,-0.1366,-0.1419,-0.1519,-0.1628,-0.167,-0.1695,-0.1586,-0.1446,-0.122,-0.0951,-0.0857,-0.0834,-0.0807,-0.0765,-0.0833,-0.0794,-0.0827,-0.0886,-0.0886,-0.0886,-0.0886,-0.0886,-0.0886,-0.1259,-0.1283,-0.1305,-0.14,-0.1449,-0.159,-0.1667,-0.1807,-0.1896,-0.2066,-0.2083,-0.2043,-0.1619,-0.1105,-0.0868,-0.0835,-0.0857,-0.0816,-0.0827,-0.0804,-0.0795,-0.0786,-0.0815,-0.0871,-0.087,-0.0913,-0.0914,-0.0914]}],[{"header":{"parameterUnit":"m.s-1","parameterCategory":2,"la1":30.2991,"la2":30.254,"lo1":-89.0895,"lo2":-89.0444,"dy":0.0017,"dx":0.0017,"nx":28,"ny":28,"refTime":"2023-10-12T03:00:00:Z","depth":"2","parameterNumber":2,"parameterNumberName":"U-component_of_CURRENTS"},"data":[0,0,0,0,0,0,0,0,0,0,0,0,0,0,0,0,0,0,0,0,0,0,0,0,0,0,0,0,0,0,0,0,0,0,0,0,0,0,0,0,0,0,0,0,0,0,0,0,0,0,0,0,0,0,0,0,0,0,-0.1825,-0.1826,0,-0.1835,-0.1835,-0.1834,-0.1853,-0.1854,-0.1854,-0.1855,-0.1863,-0.1863,-0.1862,0,0,0,0,0,0,0,0,0,0,0,0,0,-0.1747,-0.1748,-0.1825,-0.1826,-0.1826,-0.1835,-0.1835,-0.1834,-0.1853,-0.1854,-0.1855,-0.1855,-0.1863,-0.1863,-0.1862,0,0,0,0,0,0,0,0,0,0,0,0,0,-0.1768,-0.1749,-0.1825,-0.1839,-0.184,-0.1835,-0.1835,-0.1834,-0.1853,-0.1854,-0.1855,-0.1856,-0.1864,-0.1863,-0.1862,-0.1838,0,0,-0.186,-0.186,0,0,0,0,0,0,0,0,-0.1767,-0.177,-0.1836,-0.1838,-0.184,-0.1847,-0.181,-0.1837,-0.1853,-0.1844,-0.1855,-0.1856,-0.1859,-0.1859,-0.1854,-0.1838,-0.1839,-0.186,-0.186,-0.186,-0.186,0,0,0,0,0,0,0,-0.1765,-0.1769,-0.1825,-0.1837,-0.1839,-0.1819,-0.1823,-0.1814,-0.1843,-0.1845,-0.1847,-0.1854,-0.186,-0.1854,-0.1854,-0.1839,-0.186,-0.186,-0.1859,-0.1859,-0.1815,-0.1814,0,0,0,0,0,0,-0.1774,-0.1769,-0.1825,-0.1826,-0.1809,-0.182,-0.1824,-0.1841,-0.1843,-0.1846,-0.1853,-0.1855,-0.1855,-0.1855,-0.1854,-0.1852,-0.186,-0.1859,-0.1859,-0.1816,-0.1815,-0.1814,0,0,0,0,0,0,-0.1772,-0.1779,-0.1825,-0.1799,-0.1804,-0.1821,-0.1838,-0.184,-0.1843,-0.185,-0.1852,-0.1855,-0.1855,-0.1855,-0.1843,-0.1852,-0.1859,-0.1858,-0.1817,-0.1816,-0.1815,-0.1831,0,0,0,0,0,0,-0.177,-0.1779,-0.1785,-0.1801,-0.1806,-0.183,-0.1838,-0.184,-0.1846,-0.1849,-0.1852,-0.1853,-0.1856,-0.1844,-0.1843,-0.1851,-0.1858,-0.1818,-0.1816,-0.1815,-0.1831,-0.183,-0.183,0,0,0,0,0,-0.1767,-0.178,-0.1785,-0.1792,-0.1818,-0.183,-0.1831,-0.1843,-0.1845,-0.1847,-0.184,-0.1853,-0.1834,-0.1843,-0.1841,-0.185,-0.1819,-0.1817,-0.1815,-0.1832,-0.1831,-0.183,0,0,0,0,0,0,-0.1752,-0.1783,-0.179,-0.1812,-0.1823,-0.1835,-0.1837,-0.1842,-0.1836,-0.1837,-0.1839,-0.184,-0.1834,-0.1829,-0.1839,-0.1829,-0.183,-0.1828,-0.1843,-0.1842,-0.1841,-0.184,-0.1857,0,0,0,0,0,-0.175,-0.1764,-0.179,-0.1803,-0.1811,-0.1821,-0.1824,-0.1834,-0.1836,-0.1835,-0.1833,-0.1827,-0.1822,-0.1823,-0.1815,-0.1806,-0.1798,-0.181,-0.1809,-0.1808,-0.1804,-0.1795,-0.1793,-0.1808,-0.1808,-0.1808,0,0,-0.1744,-0.1764,-0.1771,-0.1799,-0.1806,-0.1814,-0.1825,-0.1836,-0.1838,-0.1835,-0.1828,-0.1823,-0.1816,-0.181,-0.1808,-0.1812,-0.1798,-0.1806,-0.1806,-0.1802,-0.1793,-0.1792,-0.1791,-0.1807,-0.1807,-0.1807,0,0,-0.1733,-0.1762,-0.1763,-0.1778,-0.1797,-0.1808,-0.1813,-0.1825,-0.1829,-0.1821,-0.1819,-0.1814,-0.1804,-0.1804,-0.1803,-0.1787,-0.1791,-0.1787,-0.1789,-0.178,-0.1779,-0.1778,-0.1764,-0.1762,-0.1791,-0.1791,-0.1791,0,-0.1722,-0.1733,-0.1763,-0.1771,-0.1778,-0.1806,-0.1804,-0.1816,-0.1819,-0.1815,-0.1822,-0.1799,-0.1802,-0.1795,-0.1794,-0.1789,-0.1779,-0.18,-0.1781,-0.178,-0.1779,-0.1764,-0.1762,-0.1791,-0.1791,-0.1791,-0.1791,0,-0.1709,-0.1719,-0.1724,-0.1744,-0.1758,-0.1763,-0.1791,-0.1795,-0.1802,-0.181,-0.1802,-0.1799,-0.1786,-0.1792,-0.1792,-0.1785,-0.1778,-0.1781,-0.179,-0.1779,-0.1763,-0.176,-0.1792,-0.1792,-0.1792,-0.1792,0,0,-0.1675,-0.1704,-0.1704,-0.1704,-0.1742,-0.1749,-0.1763,-0.1774,-0.1776,-0.1786,-0.1774,-0.178,-0.1782,-0.1778,-0.178,-0.1781,-0.1772,-0.178,-0.1779,-0.1776,-0.1745,-0.1803,-0.1805,-0.1774,-0.1773,-0.1773,-0.1738,0,-0.1646,-0.1644,-0.1671,-0.1668,-0.1671,-0.1706,-0.1717,-0.1738,-0.1754,-0.1753,-0.1765,-0.1757,-0.1778,-0.1767,-0.1775,-0.1765,-0.1764,-0.178,-0.1747,-0.1746,-0.1808,-0.1804,-0.161,-0.1568,-0.1735,-0.1734,-0.1734,0,-0.162,-0.1621,-0.1609,-0.1627,-0.1632,-0.1638,-0.1655,-0.1666,-0.1693,-0.1703,-0.1711,-0.1723,-0.1723,-0.174,-0.1735,-0.1743,-0.1743,-0.1745,-0.1744,-0.179,-0.1799,-0.1604,-0.1556,-0.1729,-0.1729,-0.173,-0.173,0,-0.1574,-0.158,-0.1562,-0.157,-0.1599,-0.1594,-0.1606,-0.1641,-0.1653,-0.1661,-0.167,-0.1678,-0.1674,-0.1679,-0.1706,-0.1709,-0.1703,-0.1703,-0.1754,-0.1757,-0.1582,-0.1572,-0.1696,-0.1696,-0.1696,-0.1696,-0.1696,0,-0.154,-0.153,-0.1535,-0.153,-0.1514,-0.1549,-0.1543,-0.1562,-0.1589,-0.1608,-0.1634,-0.1653,-0.1661,-0.1675,-0.1687,-0.1722,-0.1687,-0.1753,-0.1756,-0.1583,-0.1575,-0.1707,-0.1708,-0.1695,-0.1695,-0.1695,-0.1696,0,-0.1509,-0.151,-0.1492,-0.1496,-0.1495,-0.1483,-0.1507,-0.1511,-0.1542,-0.1562,-0.1563,-0.1616,-0.1648,-0.1671,-0.1677,-0.1705,-0.1722,-0.1741,-0.1547,-0.1531,-0.1779,-0.1782,-0.1778,-0.178,-0.1781,-0.1783,-0.1784,0,-0.1501,-0.1482,-0.1461,-0.1447,-0.1446,-0.1437,-0.144,-0.1474,-0.1493,-0.1557,-0.1567,-0.1611,-0.1669,-0.1711,-0.1672,-0.168,-0.1766,-0.1593,-0.1585,-0.1787,-0.1789,-0.1789,-0.179,-0.1333,-0.133,-0.1328,-0.1326,0,-0.1479,-0.146,-0.144,-0.1406,-0.1392,-0.1385,-0.1393,-0.1414,-0.1468,-0.1509,-0.1602,-0.1654,-0.1659,-0.1603,-0.1611,-0.1593,-0.1577,-0.1558,-0.1771,-0.1387,-0.1377,-0.1377,-0.1389,-0.1306,-0.1308,-0.131,-0.1311,-0.1312,-0.1459,-0.1429,-0.139,-0.1366,-0.1347,-0.1341,-0.1382,-0.1348,-0.1388,-0.1432,-0.154,-0.1587,-0.1536,-0.1488,-0.1425,-0.1381,-0.1488,-0.1469,-0.147,-0.1474,-0.1474,-0.1472,-0.1417,-0.142,-0.1422,-0.1424,-0.1425,0,-0.1396,-0.1393,-0.1359,-0.1329,-0.1281,-0.1321,-0.1369,-0.1333,-0.1345,-0.1376,-0.1422,-0.1323,-0.1282,-0.1301,-0.1166,-0.116,-0.1059,-0.1178,-0.1028,-0.1048,-0.1065,-0.104,-0.087,-0.0869,-0.0868,-0.0867,0,0,-0.1367,-0.1298,-0.1277,-0.1233,-0.1267,-0.1228,-0.1285,-0.1221,-0.1212,-0.1157,-0.1222,-0.126,-0.1322,-0.1111,-0.1009,-0.0961,-0.1007,-0.0918,-0.1353,-0.1199,-0.1217,-0.1214,-0.1198,0,0,0,0,0]},{"header":{"parameterUnit":"m.s-1","parameterCategory":2,"la1":30.2991,"la2":30.254,"lo1":-89.0895,"lo2":-89.0444,"dy":0.0017,"dx":0.0017,"nx":28,"ny":28,"refTime":"2023-10-12T03:00:00:Z","depth":"2","parameterNumber":3,"parameterNumberName":"V-component_of_CURRENTS"},"data":[0,0,0,0,0,0,0,0,0,0,0,0,0,0,0,0,0,0,0,0,0,0,0,0,0,0,0,0,0,0,0,0,0,0,0,0,0,0,0,0,0,0,0,0,0,0,0,0,0,0,0,0,0,0,0,0,0,0,-0.1,-0.1,0,-0.0924,-0.0923,-0.0922,-0.0878,-0.0878,-0.0878,-0.0878,-0.081,-0.0808,-0.0806,0,0,0,0,0,0,0,0,0,0,0,0,0,-0.1006,-0.1007,-0.1,-0.0999,-0.0999,-0.0924,-0.0923,-0.0921,-0.0878,-0.0878,-0.0878,-0.0878,-0.081,-0.0808,-0.0806,0,0,0,0,0,0,0,0,0,0,0,0,0,-0.0971,-0.1007,-0.1,-0.097,-0.0967,-0.0924,-0.0923,-0.0921,-0.0878,-0.0878,-0.0878,-0.0878,-0.0811,-0.0808,-0.0805,-0.0784,0,0,-0.0797,-0.0795,0,0,0,0,0,0,0,0,-0.0974,-0.0971,-0.0975,-0.0972,-0.0969,-0.0913,-0.09,-0.0877,-0.0878,-0.0908,-0.0878,-0.0878,-0.0847,-0.0841,-0.0822,-0.0781,-0.0778,-0.0796,-0.0795,-0.0793,-0.0792,0,0,0,0,0,0,0,-0.0976,-0.0973,-0.0967,-0.0975,-0.0971,-0.0926,-0.0922,-0.0894,-0.0875,-0.0906,-0.0903,-0.0899,-0.0845,-0.0825,-0.082,-0.0777,-0.0796,-0.0794,-0.0792,-0.0791,-0.0743,-0.0743,0,0,0,0,0,0,-0.0997,-0.0976,-0.0969,-0.0965,-0.0975,-0.0926,-0.0921,-0.0928,-0.0875,-0.0868,-0.0899,-0.0898,-0.083,-0.0823,-0.0817,-0.0784,-0.0793,-0.0791,-0.0789,-0.0743,-0.0743,-0.0744,0,0,0,0,0,0,-0.0998,-0.0997,-0.0972,-0.097,-0.0964,-0.0927,-0.0934,-0.0927,-0.0911,-0.0871,-0.0863,-0.0893,-0.0829,-0.0822,-0.079,-0.0781,-0.0789,-0.0787,-0.0742,-0.0743,-0.0743,-0.072,0,0,0,0,0,0,-0.0998,-0.0998,-0.1004,-0.0972,-0.0966,-0.095,-0.0934,-0.0925,-0.091,-0.0907,-0.0863,-0.0856,-0.0829,-0.0795,-0.0787,-0.0777,-0.0784,-0.0741,-0.0742,-0.0743,-0.072,-0.072,-0.0719,0,0,0,0,0,-0.0999,-0.1008,-0.1005,-0.1004,-0.0977,-0.095,-0.0942,-0.0913,-0.091,-0.09,-0.0869,-0.0858,-0.0796,-0.0792,-0.0783,-0.0772,-0.0741,-0.0742,-0.0743,-0.072,-0.072,-0.0719,0,0,0,0,0,0,-0.1009,-0.1004,-0.1,-0.1006,-0.0983,-0.0944,-0.0934,-0.0918,-0.0885,-0.0885,-0.085,-0.084,-0.0812,-0.0803,-0.08,-0.0767,-0.0772,-0.0772,-0.0758,-0.0758,-0.0757,-0.0757,-0.0782,0,0,0,0,0,-0.1017,-0.1025,-0.1006,-0.1009,-0.1003,-0.0971,-0.0956,-0.0939,-0.0909,-0.0895,-0.086,-0.0836,-0.0809,-0.0792,-0.0768,-0.0742,-0.0731,-0.0738,-0.0737,-0.0737,-0.0734,-0.0704,-0.0699,-0.0747,-0.0747,-0.0747,0,0,-0.102,-0.1019,-0.1022,-0.1011,-0.0992,-0.0975,-0.0961,-0.0945,-0.0922,-0.0893,-0.0851,-0.0829,-0.0803,-0.077,-0.0759,-0.076,-0.0721,-0.0738,-0.0737,-0.0735,-0.0704,-0.0699,-0.0695,-0.0748,-0.0748,-0.0747,0,0,-0.1027,-0.1032,-0.1039,-0.1024,-0.1006,-0.0982,-0.0983,-0.0947,-0.0924,-0.0887,-0.0862,-0.0831,-0.0792,-0.076,-0.0744,-0.0731,-0.072,-0.0739,-0.0728,-0.0698,-0.0693,-0.0689,-0.0675,-0.0669,-0.0738,-0.0738,-0.0738,0,-0.1029,-0.1038,-0.1032,-0.1029,-0.1016,-0.099,-0.0981,-0.095,-0.0903,-0.0882,-0.0878,-0.0808,-0.0783,-0.0737,-0.0731,-0.0726,-0.0718,-0.0725,-0.0695,-0.069,-0.0686,-0.0673,-0.0667,-0.0737,-0.0737,-0.0737,-0.0737,0,-0.1037,-0.104,-0.1041,-0.1031,-0.1013,-0.1003,-0.0967,-0.0942,-0.0917,-0.0882,-0.0835,-0.0791,-0.0752,-0.0742,-0.0727,-0.0689,-0.0697,-0.0695,-0.0689,-0.0679,-0.0667,-0.0661,-0.0735,-0.0736,-0.0736,-0.0736,0,0,-0.1055,-0.1049,-0.1049,-0.1046,-0.1017,-0.1003,-0.0969,-0.0928,-0.0906,-0.0854,-0.0816,-0.076,-0.0739,-0.0721,-0.0698,-0.0667,-0.0627,-0.0671,-0.0669,-0.0645,-0.0574,-0.06,-0.0596,-0.0619,-0.0618,-0.0617,-0.0578,0,-0.1062,-0.1064,-0.1053,-0.1039,-0.1035,-0.1003,-0.0972,-0.0931,-0.0891,-0.0845,-0.0792,-0.0749,-0.0731,-0.0713,-0.0676,-0.0637,-0.0611,-0.0639,-0.0598,-0.0597,-0.061,-0.059,-0.0412,-0.0365,-0.0572,-0.0571,-0.0571,0,-0.1077,-0.1075,-0.1072,-0.1051,-0.1047,-0.103,-0.0987,-0.0954,-0.0886,-0.0856,-0.0801,-0.0759,-0.0693,-0.069,-0.0607,-0.0628,-0.0603,-0.0575,-0.0573,-0.0601,-0.0612,-0.0408,-0.0346,-0.0561,-0.0562,-0.0563,-0.0563,0,-0.1102,-0.1089,-0.1089,-0.1082,-0.105,-0.1041,-0.1017,-0.096,-0.0933,-0.0862,-0.0836,-0.0754,-0.0715,-0.0658,-0.0596,-0.0601,-0.0518,-0.0518,-0.0518,-0.0521,-0.0363,-0.0354,-0.0469,-0.0469,-0.047,-0.047,-0.047,0,-0.1124,-0.1123,-0.1104,-0.1105,-0.1097,-0.1066,-0.1046,-0.1011,-0.0957,-0.093,-0.0846,-0.0812,-0.0706,-0.0643,-0.0594,-0.0536,-0.0514,-0.0511,-0.0507,-0.0355,-0.0346,-0.0514,-0.0519,-0.0468,-0.0469,-0.0469,-0.0469,0,-0.116,-0.1149,-0.1147,-0.1122,-0.1115,-0.111,-0.1076,-0.1061,-0.1005,-0.0967,-0.0945,-0.0845,-0.0769,-0.0673,-0.0581,-0.0541,-0.0481,-0.0473,-0.0314,-0.0294,-0.0506,-0.0511,-0.0462,-0.0463,-0.0463,-0.0464,-0.0464,0,-0.1181,-0.1184,-0.1167,-0.1169,-0.1162,-0.1148,-0.1142,-0.1093,-0.1081,-0.0997,-0.0989,-0.0893,-0.0835,-0.0697,-0.051,-0.0396,-0.0504,-0.0288,-0.0272,-0.0502,-0.0502,-0.0507,-0.0511,-0.0045,-0.0041,-0.0039,-0.0037,0,-0.1208,-0.1202,-0.1198,-0.1207,-0.1209,-0.1209,-0.12,-0.1205,-0.1152,-0.1119,-0.1092,-0.1033,-0.0792,-0.0551,-0.0376,-0.031,-0.0286,-0.0241,-0.047,-0.0108,-0.0113,-0.0114,-0.0129,-0.0014,-0.0016,-0.0018,-0.0019,-0.002,-0.1221,-0.1228,-0.1226,-0.1241,-0.1248,-0.128,-0.1335,-0.1247,-0.1241,-0.1158,-0.1121,-0.0984,-0.0693,-0.0367,-0.0188,-0.0045,-0.012,-0.0115,-0.0119,-0.0127,-0.0119,-0.0128,-0.003,-0.0032,-0.0034,-0.0036,-0.0037,0,-0.1182,-0.124,-0.1257,-0.1287,-0.128,-0.1334,-0.1386,-0.1351,-0.1313,-0.1183,-0.1079,-0.0799,-0.0446,-0.0258,0.0099,0.0236,0.0293,0.0156,0.0256,0.0235,0.0215,0.0242,0.0427,0.0427,0.0427,0.0428,0,0,-0.1168,-0.1169,-0.119,-0.1254,-0.1345,-0.1381,-0.1454,-0.1386,-0.1279,-0.1152,-0.1053,-0.0743,-0.0479,-0.0165,0.0121,0.0267,0.0169,0.0262,-0.0101,-0.0028,-0.0051,0.0095,0.0116,0,0,0,0,0]}],[{"header":{"parameterUnit":"m.s-1","parameterCategory":2,"la1":30.2991,"la2":30.254,"lo1":-89.0895,"lo2":-89.0444,"dy":0.0017,"dx":0.0017,"nx":28,"ny":28,"refTime":"2023-10-12T03:00:00:Z","depth":"4","parameterNumber":2,"parameterNumberName":"U-component_of_CURRENTS"},"data":[0,0,0,0,0,0,0,0,0,0,0,0,0,0,0,0,0,0,0,0,0,0,0,0,0,0,0,0,0,0,0,0,0,0,0,0,0,0,0,0,0,0,0,0,0,0,0,0,0,0,0,0,0,0,0,0,0,0,-0.072,-0.072,0,-0.0712,-0.0712,-0.0711,-0.0732,-0.0733,-0.0733,-0.0734,-0.0708,-0.0707,-0.0705,0,0,0,0,0,0,0,0,0,0,0,0,0,-0.07,-0.0701,-0.072,-0.072,-0.072,-0.0712,-0.0712,-0.0711,-0.0732,-0.0733,-0.0734,-0.0735,-0.0708,-0.0707,-0.0705,0,0,0,0,0,0,0,0,0,0,0,0,0,-0.0701,-0.0701,-0.072,-0.073,-0.0731,-0.0712,-0.0712,-0.0711,-0.0732,-0.0733,-0.0734,-0.0735,-0.0709,-0.0707,-0.0705,-0.0668,0,0,-0.0698,-0.0697,0,0,0,0,0,0,0,0,-0.0701,-0.0701,-0.0728,-0.0729,-0.073,-0.0725,-0.0695,-0.0696,-0.0731,-0.073,-0.0734,-0.0736,-0.0712,-0.071,-0.0704,-0.0667,-0.0666,-0.0698,-0.0697,-0.0696,-0.0695,0,0,0,0,0,0,0,-0.0701,-0.0702,-0.0715,-0.0728,-0.073,-0.0718,-0.0719,-0.0695,-0.0713,-0.073,-0.0732,-0.0733,-0.0713,-0.0706,-0.0703,-0.0665,-0.0698,-0.0696,-0.0695,-0.0694,-0.0636,-0.0636,0,0,0,0,0,0,-0.0707,-0.0702,-0.0715,-0.0715,-0.072,-0.0717,-0.0719,-0.0725,-0.0714,-0.0714,-0.0732,-0.0734,-0.0709,-0.0706,-0.0702,-0.0719,-0.0696,-0.0694,-0.0693,-0.0636,-0.0636,-0.0636,0,0,0,0,0,0,-0.0706,-0.0708,-0.0716,-0.0709,-0.071,-0.0717,-0.0722,-0.0724,-0.0734,-0.0716,-0.0715,-0.0743,-0.071,-0.0705,-0.0696,-0.0715,-0.0693,-0.0691,-0.0637,-0.0636,-0.0636,-0.0712,0,0,0,0,0,0,-0.0706,-0.0708,-0.0716,-0.071,-0.071,-0.072,-0.0722,-0.0723,-0.0732,-0.0735,-0.0724,-0.0722,-0.071,-0.0699,-0.0694,-0.0712,-0.0689,-0.0637,-0.0636,-0.0636,-0.071,-0.0714,-0.0718,0,0,0,0,0,-0.0705,-0.0716,-0.0717,-0.0719,-0.0721,-0.072,-0.0719,-0.0727,-0.0732,-0.0739,-0.0731,-0.0723,-0.0693,-0.0698,-0.0691,-0.0709,-0.0637,-0.0637,-0.0636,-0.0708,-0.0713,-0.0718,0,0,0,0,0,0,-0.0715,-0.0719,-0.072,-0.0733,-0.0732,-0.0725,-0.0732,-0.0732,-0.073,-0.0735,-0.0719,-0.0716,-0.0716,-0.0691,-0.0697,-0.0687,-0.0663,-0.0662,-0.072,-0.0725,-0.0729,-0.0736,-0.0687,0,0,0,0,0,-0.0719,-0.0729,-0.0727,-0.0737,-0.0739,-0.0735,-0.0737,-0.074,-0.0735,-0.0737,-0.073,-0.0715,-0.0703,-0.07,-0.0681,-0.0673,-0.0659,-0.0677,-0.0682,-0.0685,-0.0685,-0.0683,-0.0688,-0.0634,-0.0634,-0.0634,0,0,-0.0726,-0.0729,-0.0735,-0.074,-0.0739,-0.0742,-0.0739,-0.0747,-0.0755,-0.0731,-0.0742,-0.0729,-0.0702,-0.0701,-0.0698,-0.0688,-0.0694,-0.0685,-0.0689,-0.0686,-0.0683,-0.0688,-0.0693,-0.0633,-0.0634,-0.0634,0,0,-0.0735,-0.0747,-0.0752,-0.0754,-0.0757,-0.0756,-0.0762,-0.0762,-0.0771,-0.077,-0.076,-0.0761,-0.0735,-0.0731,-0.0721,-0.073,-0.0716,-0.0722,-0.0754,-0.0753,-0.0758,-0.0763,-0.0765,-0.0768,-0.0726,-0.0726,-0.0727,0,-0.074,-0.0746,-0.0754,-0.0756,-0.0758,-0.0766,-0.0767,-0.0776,-0.0775,-0.0778,-0.0783,-0.0763,-0.0752,-0.075,-0.0762,-0.0744,-0.0738,-0.0746,-0.0762,-0.0766,-0.0769,-0.077,-0.0773,-0.073,-0.073,-0.0729,-0.0729,0,-0.0743,-0.0752,-0.0757,-0.0763,-0.077,-0.0774,-0.0786,-0.0798,-0.0809,-0.0813,-0.0821,-0.0811,-0.0798,-0.0801,-0.0788,-0.0802,-0.0789,-0.0771,-0.0759,-0.078,-0.0778,-0.078,-0.0735,-0.0734,-0.0733,-0.0732,0,0,-0.0728,-0.0753,-0.0752,-0.0756,-0.0772,-0.0774,-0.0798,-0.0809,-0.0821,-0.0838,-0.0847,-0.0851,-0.0852,-0.0839,-0.083,-0.084,-0.087,-0.0822,-0.082,-0.084,-0.0873,-0.0853,-0.0853,-0.0859,-0.086,-0.086,-0.0868,0,-0.0719,-0.0727,-0.0743,-0.0752,-0.0754,-0.0776,-0.0794,-0.0812,-0.0829,-0.0844,-0.0857,-0.0858,-0.0865,-0.0862,-0.0878,-0.0861,-0.0877,-0.087,-0.0834,-0.0833,-0.0826,-0.0855,-0.0861,-0.087,-0.087,-0.087,-0.0871,0,-0.0697,-0.0709,-0.0716,-0.074,-0.0744,-0.0755,-0.0779,-0.0795,-0.0827,-0.0841,-0.0861,-0.0867,-0.0886,-0.0884,-0.0898,-0.0893,-0.0891,-0.0888,-0.0888,-0.0842,-0.0816,-0.0837,-0.0874,-0.0874,-0.0873,-0.0873,-0.0873,0,-0.0657,-0.0681,-0.0688,-0.0694,-0.0729,-0.0738,-0.0756,-0.0789,-0.0803,-0.0834,-0.0846,-0.0871,-0.0877,-0.0888,-0.0901,-0.0895,-0.0913,-0.0895,-0.088,-0.0879,-0.0862,-0.0857,-0.0908,-0.0908,-0.0908,-0.0908,-0.0908,0,-0.0624,-0.0627,-0.0671,-0.0671,-0.0679,-0.0712,-0.0725,-0.0749,-0.0783,-0.0799,-0.0837,-0.0853,-0.0879,-0.0897,-0.0904,-0.0905,-0.0916,-0.0892,-0.0881,-0.0893,-0.0891,-0.0864,-0.0859,-0.0908,-0.0908,-0.0908,-0.0908,0,-0.0569,-0.06,-0.0606,-0.0646,-0.0657,-0.0659,-0.0699,-0.0707,-0.0751,-0.0772,-0.0782,-0.0835,-0.0866,-0.0896,-0.0909,-0.0901,-0.0904,-0.0901,-0.0923,-0.0912,-0.0869,-0.0868,-0.0878,-0.0877,-0.0877,-0.0876,-0.0876,0,-0.0542,-0.054,-0.0576,-0.058,-0.0596,-0.0614,-0.0624,-0.0675,-0.0687,-0.0761,-0.0761,-0.0815,-0.085,-0.0862,-0.0893,-0.091,-0.0906,-0.0897,-0.088,-0.0879,-0.0867,-0.0867,-0.0866,-0.0875,-0.0875,-0.0875,-0.0875,0,-0.0484,-0.05,-0.0508,-0.0519,-0.0528,-0.0541,-0.0564,-0.0571,-0.0635,-0.0687,-0.0738,-0.0777,-0.0816,-0.0848,-0.087,-0.0879,-0.0895,-0.0891,-0.0892,-0.0876,-0.0876,-0.0865,-0.0864,-0.0873,-0.0873,-0.0873,-0.0873,0,-0.0438,-0.0428,-0.0443,-0.0451,-0.0466,-0.0467,-0.0487,-0.0521,-0.055,-0.0648,-0.0666,-0.0745,-0.0807,-0.0833,-0.0852,-0.0865,-0.0856,-0.0829,-0.0832,-0.0835,-0.082,-0.0813,-0.0787,0,0,0,0,0,-0.0389,-0.0377,-0.0377,-0.039,-0.0409,-0.0425,-0.0449,-0.0476,-0.055,-0.0573,-0.0625,-0.0673,-0.0734,-0.0773,-0.0779,-0.0819,-0.084,-0.0822,-0.0805,-0.0863,-0.0865,-0.0853,0,0,0,0,0,0,-0.0355,-0.0347,-0.0355,-0.0346,-0.0356,-0.037,-0.0386,-0.0431,-0.0453,-0.0539,-0.0574,-0.0653,-0.0711,-0.0738,-0.0777,-0.0788,-0.0768,-0.0877,-0.0876,-0.0862,-0.0864,-0.0865,-0.0854,0,0,0,0,0]},{"header":{"parameterUnit":"m.s-1","parameterCategory":2,"la1":30.2991,"la2":30.254,"lo1":-89.0895,"lo2":-89.0444,"dy":0.0017,"dx":0.0017,"nx":28,"ny":28,"refTime":"2023-10-12T03:00:00:Z","depth":"4","parameterNumber":3,"parameterNumberName":"V-component_of_CURRENTS"},"data":[0,0,0,0,0,0,0,0,0,0,0,0,0,0,0,0,0,0,0,0,0,0,0,0,0,0,0,0,0,0,0,0,0,0,0,0,0,0,0,0,0,0,0,0,0,0,0,0,0,0,0,0,0,0,0,0,0,0,0.0114,0.0114,0,0.0165,0.0165,0.0166,0.0187,0.0187,0.0186,0.0186,0.0267,0.0269,0.0272,0,0,0,0,0,0,0,0,0,0,0,0,0,0.0106,0.0105,0.0114,0.0114,0.0115,0.0165,0.0166,0.0166,0.0187,0.0187,0.0186,0.0186,0.0266,0.0269,0.0272,0,0,0,0,0,0,0,0,0,0,0,0,0,0.013,0.0105,0.0114,0.013,0.0132,0.0164,0.0166,0.0167,0.0187,0.0187,0.0186,0.0186,0.0265,0.0269,0.0272,0.0303,0,0,0.0283,0.0285,0,0,0,0,0,0,0,0,0.0128,0.013,0.0127,0.0129,0.0131,0.0168,0.0192,0.0213,0.0187,0.0168,0.0186,0.0186,0.0236,0.0242,0.0254,0.0306,0.031,0.0284,0.0286,0.0287,0.0288,0,0,0,0,0,0,0,0.0126,0.0128,0.0136,0.0128,0.013,0.0159,0.0161,0.0197,0.0205,0.017,0.0171,0.0174,0.0237,0.0251,0.0256,0.0311,0.0283,0.0287,0.0289,0.029,0.0372,0.0372,0,0,0,0,0,0,0.0113,0.0126,0.0134,0.0137,0.0127,0.0159,0.0162,0.0158,0.0204,0.021,0.0174,0.0175,0.0245,0.0252,0.0259,0.0281,0.0287,0.0291,0.0293,0.0372,0.0372,0.0372,0,0,0,0,0,0,0.0113,0.0113,0.0132,0.0132,0.0136,0.0159,0.0154,0.0159,0.0165,0.0207,0.0214,0.0175,0.0245,0.0254,0.0285,0.0285,0.0292,0.0296,0.0372,0.0372,0.0372,0.0335,0,0,0,0,0,0,0.0112,0.0113,0.0104,0.0131,0.0136,0.0146,0.0155,0.016,0.0167,0.0168,0.021,0.0218,0.0245,0.028,0.0289,0.029,0.0298,0.0372,0.0372,0.0372,0.0336,0.0334,0.0332,0,0,0,0,0,0.0112,0.0099,0.0103,0.0104,0.0123,0.0145,0.0151,0.0167,0.0167,0.0171,0.0198,0.0216,0.0286,0.0283,0.0294,0.0295,0.0372,0.0372,0.0372,0.0337,0.0334,0.0332,0,0,0,0,0,0,0.0092,0.01,0.0106,0.0096,0.0117,0.0148,0.0148,0.0162,0.0187,0.0184,0.0222,0.0232,0.0259,0.0282,0.0278,0.0318,0.033,0.0332,0.03,0.0297,0.0295,0.0276,0.0301,0,0,0,0,0,0.0083,0.0072,0.0096,0.0088,0.0094,0.012,0.013,0.0143,0.0168,0.0177,0.0209,0.0239,0.027,0.0286,0.0318,0.0344,0.0352,0.035,0.0347,0.0345,0.0337,0.0353,0.0351,0.0372,0.0372,0.0372,0,0,0.0073,0.0076,0.007,0.0083,0.0097,0.0105,0.0125,0.0134,0.0143,0.0184,0.0203,0.0236,0.0275,0.0302,0.0315,0.032,0.0343,0.0345,0.0343,0.0336,0.0353,0.0351,0.0349,0.0372,0.0372,0.0372,0,0,0.0049,0.005,0.0035,0.005,0.0066,0.0087,0.0086,0.0117,0.013,0.0157,0.0186,0.0215,0.0263,0.0291,0.0311,0.0316,0.0331,0.0324,0.0298,0.0314,0.0312,0.0311,0.031,0.0309,0.0322,0.0321,0.0321,0,0.0037,0.0022,0.0037,0.0034,0.0042,0.0074,0.0072,0.0094,0.0133,0.0144,0.0155,0.022,0.0257,0.0286,0.0288,0.0311,0.0313,0.0305,0.031,0.0309,0.0308,0.0308,0.0307,0.032,0.032,0.032,0.032,0,0.0009,0.0,-0.0006,-0.0003,0.0011,0.0014,0.0046,0.0061,0.0081,0.0108,0.014,0.0191,0.0226,0.0245,0.027,0.0283,0.0285,0.0305,0.0314,0.0303,0.0304,0.0304,0.0317,0.0318,0.0318,0.0319,0,0,-0.0013,-0.0027,-0.0026,-0.0033,-0.0008,-0.0,0.0011,0.0035,0.0038,0.0082,0.0091,0.015,0.0174,0.0197,0.0235,0.0251,0.0252,0.0269,0.0271,0.0262,0.0269,0.029,0.0292,0.0271,0.0271,0.0271,0.0268,0,-0.0035,-0.0062,-0.0055,-0.0066,-0.007,-0.0042,-0.0036,-0.0009,0.002,0.004,0.009,0.0119,0.0157,0.0173,0.0195,0.0244,0.0251,0.025,0.0286,0.0287,0.0302,0.0292,0.0271,0.0268,0.0268,0.0268,0.0268,0,-0.0049,-0.0069,-0.0094,-0.0104,-0.0104,-0.0104,-0.009,-0.0077,-0.004,-0.002,0.0015,0.0059,0.01,0.013,0.0188,0.0184,0.0216,0.0249,0.025,0.0281,0.0308,0.0285,0.0268,0.0268,0.0268,0.0268,0.0268,0,-0.006,-0.0086,-0.0113,-0.0113,-0.012,-0.0128,-0.0125,-0.0097,-0.0089,-0.0055,-0.0045,0.0008,0.0038,0.0087,0.0165,0.0171,0.0221,0.0242,0.0285,0.0286,0.0284,0.0286,0.0266,0.0266,0.0267,0.0267,0.0267,0,-0.0071,-0.0085,-0.0126,-0.0135,-0.0165,-0.0157,-0.0172,-0.0159,-0.0143,-0.0136,-0.0078,-0.0057,0.0028,0.0078,0.014,0.0212,0.0202,0.0273,0.0289,0.0267,0.0268,0.0283,0.0285,0.0266,0.0266,0.0266,0.0266,0,-0.0059,-0.0089,-0.0119,-0.0156,-0.0169,-0.0184,-0.0204,-0.0212,-0.0195,-0.0185,-0.0175,-0.0109,-0.004,0.0042,0.0126,0.0181,0.0249,0.0273,0.0228,0.0243,0.0303,0.0303,0.0312,0.0313,0.0313,0.0314,0.0314,0,-0.0049,-0.007,-0.0131,-0.0157,-0.0174,-0.0205,-0.0225,-0.0232,-0.024,-0.021,-0.0207,-0.014,-0.0085,0.0031,0.0127,0.0232,0.0257,0.028,0.0305,0.0294,0.0309,0.0308,0.0307,0.0315,0.0315,0.0316,0.0316,0,-0.0027,-0.0058,-0.009,-0.015,-0.0188,-0.0232,-0.0264,-0.0283,-0.0286,-0.0271,-0.0234,-0.0153,-0.0076,0.0031,0.0114,0.0196,0.0263,0.0288,0.0287,0.031,0.0298,0.0312,0.031,0.0318,0.0318,0.0318,0.0317,0,-0.0003,-0.0028,-0.0082,-0.0131,-0.0186,-0.0244,-0.0272,-0.0293,-0.0307,-0.0287,-0.0272,-0.0176,-0.0121,0.0013,0.0094,0.0175,0.0203,0.0229,0.0232,0.0231,0.0223,0.0197,0.0192,0,0,0,0,0,0.003,-0.0007,-0.0056,-0.0132,-0.019,-0.0229,-0.0285,-0.0312,-0.0331,-0.0314,-0.0297,-0.0221,-0.0081,-0.0014,0.0068,0.0115,0.022,0.0216,0.0252,0.033,0.0328,0.0337,0,0,0,0,0,0,0.0046,0.0002,-0.0045,-0.0116,-0.0172,-0.0244,-0.0291,-0.0315,-0.0312,-0.0309,-0.0242,-0.0192,-0.0063,-0.0129,0.0073,0.0102,0.0138,0.0285,0.0287,0.0332,0.0329,0.0327,0.0336,0,0,0,0,0]}]]